Domov               UVHVVR             MKGP            O straneh              
ZDRAVSTVENO VARSTVO RASTLIN
  MREŽA AGROMET. POSTAJ
 ► PROGNOSTIČNA OBVESTILA
AGROMETEOROLOŠKI PODATKI -
ARSO
OBVLADOVANJE TVEGANJ ZARADI
NEUGODNIH VREMENSKIH RAZMER
  ► NARAVNE NESREČE
  ► SUŠA/MOČA
  ► NAMAKANJE
  ► ŽLED (gozdarstvo)
KARTOGRAFSKI PRIKAZI
SPLETNE POVEZAVE
PROJEKTI IN PUBLIKACIJE

AGROMETEOROLOŠKA MREŽA: VREMENSKE POSTAJE IN FENOLOŠKA OPAZOVANJA

Pregled podatkov za lokacijo Podbrezje, meteorološka postaja 855704

Pregled senzorjev na lokaciji

ID Ime Zadnja
vrednost
Datum
zadnje
spremembe
Tip
senzorja
4023 Omočenost lista (U) 4 U 19.2.2018 06:30 A730WET
4024 Padavine (mm) 0 mm 19.2.2018 06:30 Rain-O-Matic
4022 Relativna vlaga 2 m (% RH) 100 % RH 19.2.2018 06:30 50YA
4021 Temperatura 2 m (°C) -1,33 °C 19.2.2018 06:30 50YA

Pregled podatkov zadnjih 24 ur

Zap.
št.
Datum in čas Podbrezje
Omočenost
lista
Padavine Relativna
vlaga
2
m
Temperatura
2
m
1 19.2.2018 07:00
2 19.2.2018 06:30 4 0 100 -1,3
3 19.2.2018 06:00 4 0 100 -1,4
4 19.2.2018 05:30 4 0 100 -1,3
5 19.2.2018 05:00 5 0 100 -1,2
6 19.2.2018 04:30 5 0 100 -1,3
7 19.2.2018 04:00 4 0 100 -1,1
8 19.2.2018 03:30 4 0 100 -1
9 19.2.2018 03:00 4 0 100 -0,8
10 19.2.2018 02:30 4 0 100 -0,8
11 19.2.2018 02:00 4 0 100 -0,8
12 19.2.2018 01:30 5 0 100 -0,9
13 19.2.2018 01:00 4 0 100 -0,8
14 19.2.2018 00:30 5 0 100 -0,6
15 19.2.2018 00:00 5 0 100 -0,5
16 18.2.2018 23:30 5 0 100 -0,6
17 18.2.2018 23:00 4 0 100 -0,7
18 18.2.2018 22:30 4 0 100 -0,6
19 18.2.2018 22:00 4 0 100 -0,4
20 18.2.2018 21:30 4 0 100 -0,2
21 18.2.2018 21:00 8 0 100 0
22 18.2.2018 20:30 8 0 100 0
23 18.2.2018 20:00 9 0 100 0,1
24 18.2.2018 19:30 10 0 100 0,2
25 18.2.2018 19:00 10 0 100 0,3
26 18.2.2018 18:30 10 0 100 0,3
27 18.2.2018 18:00 10 0 99,9 0,5
28 18.2.2018 17:30 10 0,2 99,4 0,6
29 18.2.2018 17:00 10 0 98,2 0,8
30 18.2.2018 16:30 10 0 96,9 1
31 18.2.2018 16:00 10 0,2 95,9 1,3
32 18.2.2018 15:30 10 0 94,7 1,4
33 18.2.2018 15:00 10 0 95,1 1,6
34 18.2.2018 14:30 10 0 95,2 1,6
35 18.2.2018 14:00 10 0 96,2 1,6
36 18.2.2018 13:30 10 0 97,3 1,4
37 18.2.2018 13:00 10 0 98,4 1,3
38 18.2.2018 12:30 10 0 98,4 1
39 18.2.2018 12:00 10 0 97,6 0,9
40 18.2.2018 11:30 10 0 98,3 1
41 18.2.2018 11:00 10 0,2 99,8 1,1
42 18.2.2018 10:30 10 0,2 100 0,9
43 18.2.2018 10:00 10 1 100 0,8
44 18.2.2018 09:30 10 1 100 0,7
45 18.2.2018 09:00 10 0,6 100 0,5
46 18.2.2018 08:30 10 0,2 100 0,2
47 18.2.2018 08:00 10 0 100 0,1
48 18.2.2018 07:30 10 0 100 0,1
© 2011 Ministrstvo za kmetijstvo, gozdarstvo in prehrano. Vse pravice pridržane.